Location: Cucq
(50.4773°N, 1.6202°E)
Time: 02:59:42
(UTC+00:00)

CSL-04 DEB - Pass Details

Date: 07 August 2020
Orbit: 546 x 627 km, 98.7° (Epoch: 25 September)

Event Time Altitude Azimuth Distance (km) Brightness Sun altitude
Rises 03:05:15 0° 162° (SSE) 2,707 7.6 -11.8°
Reaches altitude 10° 03:07:22 10° 162° (SSE) 1,815 6.7 -11.5°
Maximum altitude 03:11:16 87° 75° (ENE) 555 4.3 -11.1°
Drops below altitude 10° 03:15:14 10° 345° (NNW) 1,837 7.4 -10.6°
Sets 03:17:23 0° 345° (NNW) 2,742 8.3 -10.4°
